This is the latest recevied weather packets stored in our database for station/object WX4HP-13. If no packets are shown the sender has not sent any weather packets the latest 10 day(s).
| Time | Temp. | Humidity | Pressure | Rain* | Wind** | Luminosity | Snow |
|---|---|---|---|---|---|---|---|
| 1777368595 | 17.78° C | 93% | 1015.6 hPa | 0.76 mm | - | - | - |
| 1777368296 | 17.78° C | 93% | 1015.6 hPa | 0 mm | - | - | - |
| 1777367695 | 17.78° C | 93% | 1015.6 hPa | 0.25 mm | - | - | - |
| 1777367397 | 17.78° C | 93% | 1015.6 hPa | 0.51 mm | - | - | - |
| 1777366495 | 17.78° C | 93% | 1015.7 hPa | 1.02 mm | - | - | - |
| 1777366195 | 17.78° C | 92% | 1015.8 hPa | 1.02 mm | - | - | - |
| 1777365895 | 17.78° C | 91% | 1015.8 hPa | 1.02 mm | - | - | - |
| 1777365595 | 18.33° C | 91% | 1015.8 hPa | 1.02 mm | - | - | - |
| 1777364995 | 18.33° C | 89% | 1016.1 hPa | 1.02 mm | - | - | - |
| 1777364696 | 18.33° C | 88% | 1016 hPa | 1.02 mm | - | - | - |
| 1777364396 | 18.89° C | 87% | 1016 hPa | 0.76 mm | - | - | - |
| 1777364095 | 19.44° C | 84% | 1015.9 hPa | 0.51 mm | - | - | - |
| 1777363795 | 20.56° C | 79% | 1016 hPa | 0 mm | - | - | - |
| 1777363195 | 20.56° C | 74% | 1015.7 hPa | 0 mm | - | - | - |
| 1777362951 | 20.56° C | 73% | 1015.6 hPa | 0 mm | - | - | - |
| 1777362895 | 20.56° C | 73% | 1015.6 hPa | 0 mm | - | - | - |
| 1777362295 | 21.11° C | 71% | 1015.1 hPa | 0 mm | - | - | - |
| 1777361095 | 21.11° C | 70% | 1015.2 hPa | 0 mm | - | - | - |
| 1777360836 | 21.11° C | 70% | 1014.9 hPa | 0 mm | - | - | - |
| 1777360795 | 21.11° C | 70% | 1014.9 hPa | 0 mm | - | - | - |
| 1777359595 | 21.11° C | 71% | 1015.4 hPa | 0 mm | - | - | - |
| 1777359296 | 21.67° C | 71% | 1015.4 hPa | 0 mm | - | - | - |
| 1777358996 | 21.67° C | 71% | 1015.5 hPa | 0 mm | - | - | - |
| 1777358696 | 21.67° C | 71% | 1015.6 hPa | 0 mm | - | - | - |
| 1777358395 | 21.67° C | 71% | 1015.4 hPa | 0 mm | - | - | - |
* Rain latest hour (hover to see other rain measurements)
** Current wind speed in m/s (hover to see current wind gust speed)